Monroe, MI

12:01 PM EST on February 12, 2016 (GMT -0500)
Custer

Weather History for KTTF - September, 2014

Change the Weather History Date:

Thursday, September 4, 2014

  Actual Average Record
Temperature  
Mean Temperature 73 °F -  
Max Temperature 87 °F 79 °F 95 °F (1939)
Min Temperature 59 °F 58 °F 39 °F (1997)
Cooling Degree Days 8    
Growing Degree Days 23 (Base 50)    
Moisture  
Dew Point 64 °F    
Average Humidity 74    
Maximum Humidity 94    
Minimum Humidity 48    
Precipitation  
Precipitation 0.00 in - - ()
Sea Level Pressure  
Sea Level Pressure 30.03 in    
Wind  
Wind Speed 5 mph (SW)    
Max Wind Speed 15 mph    
Max Gust Speed 22 mph    
Visibility 10 miles    
Events Rain    
Averages and records for this station are not official NWS values.
T = Trace of Precipitation, MM = Missing Value Source: NWS Daily Summary

Daily Weather History Graph

Daily Weather History Graph

Search for Another Location

Airport or City:

Trip Planner

Search our weather history database for the weather conditions in past years. The results will help you decide how hot, cold, wet, or windy it might be!

Date:

Astronomy

Sep. 04, 2014 Rise Set
Actual Time 7:02 AM EDT 8:02 PM EDT
Civil Twilight 6:33 AM EDT 8:30 PM EDT
Nautical Twilight 5:59 AM EDT 9:04 PM EDT
Astronomical Twilight 5:24 AM EDT 9:39 PM EDT
Moon 4:41 PM EDT (9/4) 1:49 AM EDT (9/4)
Length of Visible Light 13h 56m
Length of Day
12h 59m
Waxing Gibbous, 74% of the Moon is Illuminated
Sep 4
Waxing Gibbous
Sep 8
Full
Sep 15
Last Quarter
Sep 24
New
Oct 1
First Quarter

Hourly Weather History & Observations

Time (EDT) Temp. Heat Index Dew Point Humidity Pressure Visibility Wind Dir Wind Speed Gust Speed Precip Events Conditions
12:13 AM 66.2 °F - 62.6 °F 88% 30.05 in 7.0 mi South 3.5 mph - N/A   Clear
12:33 AM 64.4 °F - 62.6 °F 94% 30.04 in 10.0 mi South 3.5 mph - N/A   Clear
12:53 AM 66.2 °F - 62.6 °F 88% 30.04 in 10.0 mi South 3.5 mph - N/A   Clear
1:13 AM 66.2 °F - 62.6 °F 88% 30.05 in 10.0 mi SSW 3.5 mph - N/A   Clear
1:33 AM 64.4 °F - 60.8 °F 88% 30.05 in 10.0 mi Calm Calm - N/A   Clear
1:53 AM 66.2 °F - 60.8 °F 83% 30.05 in 10.0 mi Calm Calm - N/A   Clear
2:13 AM 64.4 °F - 60.8 °F 88% 30.05 in 10.0 mi Calm Calm - N/A   Clear
2:33 AM 64.4 °F - 60.8 °F 88% 30.05 in 10.0 mi Calm Calm - N/A   Clear
2:53 AM 62.6 °F - 60.8 °F 94% 30.05 in 10.0 mi Calm Calm - N/A   Clear
3:13 AM 62.6 °F - 59.0 °F 88% 30.05 in 10.0 mi Calm Calm - N/A   Clear
3:33 AM 64.4 °F - 60.8 °F 88% 30.04 in 10.0 mi South 3.5 mph - N/A   Clear
3:53 AM 62.6 °F - 59.0 °F 88% 30.04 in 10.0 mi South 3.5 mph - N/A   Clear
4:14 AM 64.4 °F - 59.0 °F 83% 30.03 in 10.0 mi South 5.8 mph - N/A   Clear
4:34 AM 64.4 °F - 60.8 °F 88% 30.03 in 10.0 mi SSW 5.8 mph - N/A   Clear
4:54 AM 64.4 °F - 60.8 °F 88% 30.03 in 10.0 mi Calm Calm - N/A   Clear
5:14 AM 64.4 °F - 59.0 °F 83% 30.04 in 10.0 mi WSW 3.5 mph - N/A   Clear
5:34 AM 62.6 °F - 59.0 °F 88% 30.03 in 10.0 mi Calm Calm - N/A   Clear
5:54 AM 62.6 °F - 59.0 °F 88% 30.03 in 10.0 mi Calm Calm - N/A   Clear
6:14 AM 62.6 °F - 59.0 °F 88% 30.03 in 10.0 mi Calm Calm - N/A   Clear
6:34 AM 60.8 °F - 59.0 °F 94% 30.03 in 10.0 mi Calm Calm - N/A   Clear
6:55 AM 60.8 °F - 57.2 °F 88% 30.03 in 10.0 mi Calm Calm - N/A   Clear
7:15 AM 59.0 °F - 57.2 °F 94% 30.03 in 10.0 mi Calm Calm - N/A   Clear
7:35 AM 60.8 °F - 59.0 °F 94% 30.03 in 10.0 mi Calm Calm - N/A   Clear
7:50 AM 62.6 °F - 60.8 °F 94% 30.03 in 10.0 mi Calm Calm - N/A   Clear
8:10 AM 66.2 °F - 60.8 °F 83% 30.04 in 10.0 mi West 4.6 mph - N/A   Clear
8:30 AM 69.8 °F - 62.6 °F 78% 30.05 in 10.0 mi SSW 4.6 mph - N/A   Clear
8:50 AM 69.8 °F - 62.6 °F 78% 30.06 in 10.0 mi SW 4.6 mph - N/A   Clear
9:10 AM 71.6 °F - 62.6 °F 73% 30.06 in 10.0 mi SW 4.6 mph - N/A   Clear
9:30 AM 73.4 °F - 64.4 °F 73% 30.06 in 10.0 mi SW 5.8 mph - N/A   Clear
9:50 AM 75.2 °F - 64.4 °F 69% 30.06 in 10.0 mi SSW 5.8 mph - N/A   Clear
10:10 AM 75.2 °F - 64.4 °F 69% 30.06 in 10.0 mi SSW 6.9 mph - N/A   Clear
10:31 AM 77.0 °F - 64.4 °F 65% 30.06 in 10.0 mi SSW 10.4 mph - N/A   Clear
10:51 AM 78.8 °F - 66.2 °F 65% 30.06 in 10.0 mi SSW 9.2 mph 18.4 mph N/A   Clear
11:11 AM 80.6 °F 82.7 °F 66.2 °F 61% 30.07 in 10.0 mi SW 8.1 mph 17.3 mph N/A   Clear
11:31 AM 80.6 °F 82.7 °F 66.2 °F 61% 30.06 in 10.0 mi WSW 11.5 mph 16.1 mph N/A   Clear
11:51 AM 82.4 °F 84.6 °F 66.2 °F 58% 30.05 in 10.0 mi SW 12.7 mph 18.4 mph N/A   Clear
12:11 PM 82.4 °F 84.6 °F 66.2 °F 58% 30.04 in 10.0 mi SW 11.5 mph 19.6 mph N/A   Clear
12:31 PM 82.4 °F 84.6 °F 66.2 °F 58% 30.03 in 10.0 mi SW 11.5 mph 20.7 mph N/A   Clear
12:51 PM 84.2 °F 87.3 °F 68.0 °F 58% 30.03 in 10.0 mi WSW 13.8 mph 17.3 mph N/A   Clear
1:11 PM 84.2 °F 87.3 °F 68.0 °F 58% 30.02 in 10.0 mi SW 11.5 mph 20.7 mph N/A   Clear
1:31 PM 84.2 °F 86.6 °F 66.2 °F 55% 30.00 in 10.0 mi SW 15.0 mph 21.9 mph N/A   Clear
1:52 PM 82.4 °F 84.6 °F 66.2 °F 58% 30.00 in 10.0 mi WSW 13.8 mph 21.9 mph N/A   Clear
2:12 PM 84.2 °F 86.6 °F 66.2 °F 55% 30.00 in 10.0 mi SW 13.8 mph - N/A   Clear
2:32 PM 84.2 °F 86.6 °F 66.2 °F 55% 30.00 in 10.0 mi SSW 11.5 mph - N/A   Clear
2:52 PM 84.2 °F 86.6 °F 66.2 °F 55% 29.98 in 10.0 mi SSW 15.0 mph 18.4 mph N/A   Clear
3:12 PM 86.0 °F 89.4 °F 68.0 °F 55% 29.98 in 10.0 mi SSW 15.0 mph 21.9 mph N/A   Clear
3:32 PM 86.0 °F 89.4 °F 68.0 °F 55% 29.98 in 10.0 mi SSW 11.5 mph 16.1 mph N/A   Clear
3:52 PM 87.8 °F 90.4 °F 66.2 °F 49% 29.97 in 10.0 mi South 12.7 mph - N/A   Clear
4:12 PM 87.8 °F 90.4 °F 66.2 °F 49% 29.98 in 10.0 mi South 9.2 mph - N/A   Clear
4:33 PM 87.8 °F 90.4 °F 66.2 °F 49% 29.99 in 10.0 mi SSW 12.7 mph 18.4 mph N/A   Clear
4:53 PM 87.8 °F 90.4 °F 66.2 °F 49% 29.99 in 10.0 mi SW 11.5 mph 20.7 mph N/A   Clear
5:13 PM 86.0 °F 87.3 °F 64.4 °F 48% 29.99 in 10.0 mi SW 13.8 mph 18.4 mph N/A   Clear
5:33 PM 87.8 °F 90.4 °F 66.2 °F 49% 29.99 in 10.0 mi SW 6.9 mph - N/A   Clear
5:53 PM 84.2 °F 86.6 °F 66.2 °F 55% 30.00 in 10.0 mi SW 9.2 mph - N/A   Scattered Clouds
6:13 PM 86.0 °F 89.4 °F 68.0 °F 55% 29.99 in 10.0 mi WSW 5.8 mph - N/A   Mostly Cloudy
6:34 PM 84.2 °F 86.6 °F 66.2 °F 55% 29.99 in 10.0 mi SW 5.8 mph - N/A   Scattered Clouds
6:54 PM 82.4 °F 85.4 °F 68.0 °F 62% 30.00 in 10.0 mi Calm Calm - N/A   Mostly Cloudy
7:14 PM 82.4 °F 85.4 °F 68.0 °F 62% 30.00 in 10.0 mi WSW 8.1 mph - N/A   Mostly Cloudy
7:34 PM 80.6 °F 82.7 °F 66.2 °F 61% 30.01 in 10.0 mi West 6.9 mph - N/A   Mostly Cloudy
7:54 PM 78.8 °F - 68.0 °F 69% 30.02 in 10.0 mi North 6.9 mph - N/A   Mostly Cloudy
8:14 PM 78.8 °F - 69.8 °F 74% 30.02 in 10.0 mi West 4.6 mph - N/A   Light Drizzle
8:34 PM 73.4 °F - 69.8 °F 88% 30.02 in 7.0 mi SW 6.9 mph - N/A Rain Rain
8:54 PM 73.4 °F - 69.8 °F 88% 30.00 in 10.0 mi SSW 3.5 mph - N/A   Scattered Clouds
9:13 PM 73.4 °F - 69.8 °F 88% 30.01 in 10.0 mi SSW 6.9 mph - N/A   Clear
9:35 PM 73.4 °F - 69.8 °F 88% 30.02 in 10.0 mi SSW 5.8 mph - N/A   Clear
9:43 PM 73.4 °F - 68.0 °F 83% 30.02 in 10.0 mi SSW 5.8 mph - N/A   Clear
10:03 PM 73.4 °F - 68.0 °F 83% 30.02 in 10.0 mi SW 5.8 mph - N/A   Clear
10:35 PM 73.4 °F - 68.0 °F 83% 30.02 in 10.0 mi SSW 3.5 mph - N/A   Clear
10:50 PM 73.4 °F - 68.0 °F 83% 30.03 in 10.0 mi SW 3.5 mph - N/A   Clear
11:05 PM 71.6 °F - 68.0 °F 88% 30.04 in 10.0 mi Calm Calm - N/A   Clear
11:30 PM 71.6 °F - 68.0 °F 88% 30.06 in 10.0 mi Calm Calm - N/A   Clear
11:55 PM 69.8 °F - 66.2 °F 88% 30.06 in 7.0 mi Calm Calm - N/A   Clear